TOURFACTS.DK  
Stats and Facts from Tour de France.

Tour de France 2019 starts in 348 days
  Riders   Stages   Teams   Summits   Yearly  


 
Search by year

After 2018 - Stage 14:
 15000 starters.
  5163 different riders.
  639 teams.
  2246 stages.
  456 restdays.
  441957.60 km.
  5678 abandonnees.


Top 3
GC
Christopher Froome86:20:55
Rigoberto Urán86:21:49
Romain Bardet86:23:15
Climb
Warren Barguil169 pt.
Primoz Roglic80 pt.
Thomas De Gendt64 pt.
Sprint
Michael Matthews359 pt.
André Greipel234 pt.
Edvald Boasson Hagen220 pt.
Youth
Simon Yates86:27:09
Louis Meintjes86:29:15
Emanuel Buchmann86:54:16
Facts from Tour de France 1935
  |   Stages.  |   Stage winners.  |   Days in yellow  |   Average speed.  |   Route.  |   Teams.  |   All riders.  |   Rookies.  |  

  |   Withdrawls.  |   GC.  |   Polka  |   Green  |   White  |   Summits. (In tour)  |   Miscellaneous.  |  

Stage 7 on July 11th. 1935
         Owning:    Romain Maes    
Pick a stage:  1 2 3 4 5a 5b 6 7 8 9 10 11 12 13a 13b 14a 14b 15 16 17 18a 18b 19a 19b 20a 20b 21
From: Aix-les-Bains    To: GrenobleDist:229.00 km.
Cat: Col du GalibierFRAGabriel Ruozzi
10 points
 

Average speed for all riders in stage:  28,432 km./hr.
    Place:Name:Team:Time:Km/h:
ITAFrancesco CamussoITAItaly07:33:13  +  00:00:00=30,317 
2 GERWilly KutschbachDEUGermany07:33:13  +  00:00:00=30,317 
ITAAmbrogio MorelliITACadetti Italiens07:37:01  +  00:03:48=30,065 
FRAGabriel RuozziTouristes Routiers07:37:01  +  00:03:48=30,065 
5 ITAVasco BergamaschiITAItaly07:43:10  +  00:09:57=29,665 
6 BELRomain MaesBELBelgium07:43:10  +  00:09:57=29,665 
7 BELFélicien VervaeckeBELBelgium07:46:25  +  00:13:12=29,459 
8 FRARené ViettoFRAFrance07:46:25  +  00:13:12=29,459 
9 FRAPaul ChocqueTouristes Routiers07:46:25  +  00:13:12=29,459 
10 ITADante GianelloTouristes Routiers07:46:36  +  00:13:23=29,447 
11 FRAGeorges SpeicherFRAFrance07:47:19  +  00:14:06=29,402 
12 FRAJoseph MauclairTouristes Routiers07:47:19  +  00:14:06=29,402 
13 ITAOrlando TeaniITACadetti Italiens07:47:19  +  00:14:06=29,402 
14 GERGeorg UmbenhauerDEUGermany07:47:19  +  00:14:06=29,402 
15 FRAJulien MoineauFRAFrance B07:47:19  +  00:14:06=29,402 
16 FRAPierre CoganTouristes Routiers07:47:19  +  00:14:06=29,402 
17 FRAHonore GranierTouristes Routiers07:47:19  +  00:14:06=29,402 
18 FRABenoit FaureTouristes Routiers07:47:19  +  00:14:06=29,402 
19 BELSylvère MaesBELBelgium B07:47:19  +  00:14:06=29,402 
20 FRARené BernardTouristes Routiers07:47:19  +  00:14:06=29,402 
21 FRAFernand FayolleTouristes Routiers07:47:19  +  00:14:06=29,402 
22 ITALuigi GiacobbeITAItaly07:47:19  +  00:14:06=29,402 
23 ESPEmiliano AlvarezESPSpain07:47:19  +  00:14:06=29,402 
24 FRAMaurice ArchambaudFRAFrance07:48:05  +  00:14:52=29,354 
25 BELFrançois NeuvilleBELBelgium B07:50:59  +  00:17:46=29,173 
26 BELJules LowieBELBelgium B07:50:59  +  00:17:46=29,173 
27 SUIFritz HartmannCHESwitzerland07:50:59  +  00:17:46=29,173 
28 BELHenri GarnierBELBelgium07:51:40  +  00:18:27=29,131 
29 ESPSalvador CardonaESPSpain07:59:41  +  00:26:28=28,644 
30 GERAnton HodeyDEUGermany07:59:41  +  00:26:28=28,644 
31 FRAPierre-Marie CloarecTouristes Routiers07:59:41  +  00:26:28=28,644 
32 ITARafaële Di PacoITAItaly07:59:41  +  00:26:28=28,644 
33 FRACharles BertyTouristes Routiers07:59:41  +  00:26:28=28,644 
34 BELAntoine DignefBELBelgium B07:59:41  +  00:26:28=28,644 
35 GEROskar ThierbachDEUGermany07:59:41  +  00:26:28=28,644 
36 FRARené Le GrevesFRAFrance08:04:17  +  00:31:04=28,372 
37 ESPAntonio PriorESPSpain08:04:17  +  00:31:04=28,372 
38 FRAGeorges LachatTouristes Routiers08:04:17  +  00:31:04=28,372 
39 ITARemo BertoniITAItaly08:04:17  +  00:31:04=28,372 
40 ITAPietro RimoldiITACadetti Italiens08:04:17  +  00:31:04=28,372 
41 FRACharles PelissierFRAFrance B08:04:17  +  00:31:04=28,372 
42 ESPThéodore LadronTouristes Routiers08:04:17  +  00:31:04=28,372 
43 FRAAndré LeducqFRAFrance08:04:17  +  00:31:04=28,372 
44 FRAJean FontenayFRAFrance B08:08:19  +  00:35:06=28,137 
45 ITAOreste BernardoniTouristes Routiers08:08:19  +  00:35:06=28,137 
46 ESPVicente BacheroESPSpain B08:08:19  +  00:35:06=28,137 
47 BELEdgard De CaluweBELBelgium08:08:19  +  00:35:06=28,137 
48 ESPManuel GarciaTouristes Routiers08:08:19  +  00:35:06=28,137 
49 SUILéo AmbergCHESwitzerland08:08:19  +  00:35:06=28,137 
50 GERBruno RothDEUGermany B08:18:26  +  00:45:13=27,566 
51 GERFerdinand IckesDEUGermany B08:18:26  +  00:45:13=27,566 
52 FRAJules MervielFRAFrance08:18:26  +  00:45:13=27,566 
53 SUIKurt StettlerCHESwitzerland08:18:26  +  00:45:13=27,566 
54 FRAGeorges HubatzTouristes Routiers08:18:26  +  00:45:13=27,566 
55 FRARoger LapebieFRAFrance B08:18:26  +  00:45:13=27,566 
56 FRALouis ThiétardTouristes Routiers08:19:20  +  00:46:07=27,517 
57 FRAClément BistagneTouristes Routiers08:19:20  +  00:46:07=27,517 
58 ITAAldo BertoccoTouristes Routiers08:19:20  +  00:46:07=27,517 
59 FRARené DebenneFRAFrance08:29:52  +  00:56:39=26,948 
60 ESPDemetrio VicenteESPSpain B08:29:54  +  00:56:41=26,946 
61 GERGeorge HaendelDEUGermany B08:29:54  +  00:56:41=26,946 
62 FRARobert RenonceTouristes Routiers08:33:10  +  00:59:57=26,775 
63 GEROtto WeckerlingDEUGermany08:34:42  +  01:01:29=26,695 
64 FRAMaurice PomarèdeTouristes Routiers08:34:42  +  01:01:29=26,695 
65 GERKarl HeideDEUGermany08:34:42  +  01:01:29=26,695 
66 BELLouis HardiquestBELBelgium08:34:42  +  01:01:29=26,695 
67 BELJean AertsBELBelgium08:34:42  +  01:01:29=26,695 
68 GERGeorg StachDEUGermany B08:34:42  +  01:01:29=26,695 
69 GEREmil KijewskiDEUGermany08:42:12  +  01:08:59=26,312 

Withdrawls: 6
 
Rider
Team
Reason
2  FRAGustave DanneelsBELBelgiumDid not finish
15  ITAAdriano VignoliITAItalyDid not finish
36  FRAAntonin MagneFRAFranceDid not finish
60  ESPFrancisco CepedaESPSpain BDid not finish
112  LUXJosy KrausTouristes RoutiersDid not finish
118  FRAJean PhilipTouristes RoutiersDid not finish

Todays birthdays.

1877  Antoine Perrichon
1878  Auguste Berthault
1911  Théo Herckenrath
1924  Carlo Lafranchi
1931  Armand Di Caro
1937  Jean-Claude Lebaube
1951  Giovanni Battaglin
1961  Pascal Jules
1962  Jean-Claude Leclercq
1976  Janek Tombak
1978  Francisco Pérez
1983  Dries Devenyns




Visits: